Regional Weather Roundup
Issued by NWS Cleveland, OH

Home | Current Version | Previous Version | Graphics & Text | Print | Product List | Glossary On
Versions: 1 2 3 4 5 6 7 8 9 10 11 12 13 14 15 16 17 18 19 20 21 22 23 24 25 26 27 28 29 30 31 32 33 34 35 36 37 38 39 40 41 42 43 44 45 46 47 48 49 50
697
ASUS41 KCLE 031400
RWRCLE
OHIO REGIONAL WEATHER ROUNDUP
NATIONAL WEATHER SERVICE WILMINGTON, OH
1000 AM EDT TUE MAY 03 2016

NOTE: "FAIR" INDICATES FEW OR NO CLOUDS BELOW 12,000 FEET WITH NO
SIGNIFICANT WEATHER AND/OR OBSTRUCTIONS TO VISIBILITY.

OHZ001>008-015>018-024>027-034-035-043-044-031500-
   NORTHWEST OHIO

CITY           SKY/WX    TMP DP  RH WIND       PRES   REMARKS
DEFIANCE       CLOUDY    51  44  77 N5        29.94F
FINDLAY        CLOUDY    53  44  71 N5        29.92F
TOLEDO EXPRESS CLOUDY    53  45  74 W3        29.93S
TOLEDO EXEC    PTSUNNY   55  45  68 SW5       29.93F
LIMA           CLOUDY    50  45  83 N5        29.93S
$$

OHZ009>014-019>023-028>033-038-089-031500-
   NORTHEAST OHIO

CITY           SKY/WX    TMP DP  RH WIND       PRES   REMARKS
CLE-HOPKINS    PTSUNNY   52  43  71 N8        29.93F
CLE-LAKEFRONT  FAIR      50  43  77 W6        29.92S
CUY CO. ARPT   PTSUNNY   50  45  81 E6        29.92S
LORAIN-ELYRIA  CLOUDY    50  42  74 N7        29.92F
ASHTABULA      CLOUDY    46  42  86 N3        29.91S
AKRON-CANTON   CLOUDY    50  42  74 N6        29.90S
WOOSTER        CLOUDY    48  45  87 N9        29.91S HAZE
MANSFIELD      CLOUDY    51  44  77 N8        29.91S
YOUNGSTOWN     CLOUDY    47  42  83 VRB5      29.89S
$$

OHZ042-051>053-060>062-070>072-077>081-031500-
  SOUTHWEST OHIO

CITY           SKY/WX    TMP DP  RH WIND       PRES   REMARKS
CINC-COVINGTON CLOUDY    54  51  90 NW6       29.91S
CINC-LUNKEN    CLOUDY    55  51  86 N3        29.92S
HAMILTON       CLOUDY    55  48  77 N5        29.92F
DAYTON         NOT AVBL
WRIGHT-PAT AFB NOT AVBL
DAYTON GENERAL CLOUDY    51  45  79 N5        29.91S
WILMINGTON     CLOUDY    51  47  86 NE5       29.90F
$$

OHZ036-037-039>041-045>050-054>059-063>069-073>076-082>088-031500-
  CENTRAL AND SOUTHEAST OHIO

CITY           SKY/WX    TMP DP  RH WIND       PRES   REMARKS
COLUMBUS       CLOUDY    51  43  74 N6        29.90S
OSU AIRPORT    CLOUDY    52  44  74 NE5       29.91S
BOLTON FIELD   CLOUDY    52  45  76 N5        29.91S
RICKENBACK AFB NOT AVBL
NEWARK         CLOUDY    54  42  64 N7        29.89S
MARION         CLOUDY    52  45  77 NE3       29.93S
LANCASTER      LGT RAIN  51  45  79 N5        29.90S
ZANESVILLE     CLOUDY    53  43  68 VRB3      29.89F
NEW PHILLY     PTSUNNY   52  42  69 NE7       29.90F
$$




USA.gov is the U.S. government's official web portal to all federal, state and local government web resources and services.